Algona, IA

7:33 AM CDT on October 24, 2017 (GMT -0500)
Algona Municipal

Weather History for KAXA - March, 2012

Change the Weather History Date:

Tuesday, March 6, 2012

  Actual Average Record
Temperature  
Mean Temperature 50 °F -  
Max Temperature 66 °F 30 °F 71 °F (2017)
Min Temperature 33 °F 16 °F 3 °F (2007)
Degree Days  
Heating Degree Days 16    
Moisture  
Dew Point 37 °F    
Average Humidity 68    
Maximum Humidity 82    
Minimum Humidity 52    
Precipitation  
Precipitation 0.00 in - - ()
Sea Level Pressure  
Sea Level Pressure 29.65 in    
Wind  
Wind Speed 16 mph (South)    
Max Wind Speed 23 mph    
Max Gust Speed 30 mph    
Visibility 10 miles    
Events      
Averages and records for this station are not official NWS values.
T = Trace of Precipitation, MM = Missing Value Source: NWS Daily Summary

Daily Weather History Graph

Daily Weather History Graph

Search for Another Location

Airport or City:

Trip Planner

Search our weather history database for the weather conditions in past years. The results will help you decide how hot, cold, wet, or windy it might be!

Date:

Astronomy

Mar. 06, 2012 Rise Set
Actual Time 6:43 AM CST 6:13 PM CST
Civil Twilight 6:15 AM CST 6:41 PM CST
Nautical Twilight 5:42 AM CST 7:14 PM CST
Astronomical Twilight 5:09 AM CST 7:47 PM CST
Moon 4:39 PM CST (3/6) 5:22 AM CST (3/6)
Length of Visible Light 12h 26m
Length of Day
11h 29m
Waxing Gibbous, 96% of the Moon is Illuminated
Mar 6
Waxing Gibbous
Mar 8
Full
Mar 14
Last Quarter
Mar 22
New
Mar 30
First Quarter

Hourly Weather History & Observations

Time (CST) Temp. Windchill Dew Point Humidity Pressure Visibility Wind Dir Wind Speed Gust Speed Precip Events Conditions
12:15 AM 35.6 °F 25.9 °F 26.6 °F 70% 29.83 in 10.0 mi SSE 16.1 mph - N/A   Clear
12:35 AM 35.6 °F 26.2 °F 26.6 °F 70% 29.82 in 10.0 mi SSE 15.0 mph - N/A   Clear
12:55 AM 35.6 °F 26.6 °F 26.6 °F 70% 29.81 in 10.0 mi SSE 13.8 mph - N/A   Clear
1:15 AM 35.6 °F 26.2 °F 26.6 °F 70% 29.80 in 10.0 mi SSE 15.0 mph - N/A   Clear
1:35 AM 35.6 °F 26.2 °F 26.6 °F 70% 29.79 in 10.0 mi SSE 15.0 mph - N/A   Clear
1:55 AM 35.6 °F 25.9 °F 26.6 °F 70% 29.77 in 10.0 mi SSE 16.1 mph - N/A   Clear
2:15 AM 35.6 °F 25.5 °F 26.6 °F 70% 29.76 in 10.0 mi SSE 17.3 mph - N/A   Clear
2:35 AM 37.4 °F 27.5 °F 26.6 °F 65% 29.75 in 10.0 mi SSE 18.4 mph - N/A   Clear
2:55 AM 37.4 °F 27.5 °F 26.6 °F 65% 29.73 in 10.0 mi SSE 18.4 mph - N/A   Clear
3:15 AM 35.6 °F 24.5 °F 26.6 °F 70% 29.73 in 10.0 mi SSE 20.7 mph 24.2 mph N/A   Clear
3:35 AM 35.6 °F 24.8 °F 26.6 °F 70% 29.71 in 10.0 mi SE 19.6 mph 26.5 mph N/A   Clear
3:55 AM 35.6 °F 25.5 °F 26.6 °F 70% 29.70 in 10.0 mi SE 17.3 mph 24.2 mph N/A   Clear
4:15 AM 35.6 °F 26.6 °F 26.6 °F 70% 29.70 in 10.0 mi SE 13.8 mph 20.7 mph N/A   Clear
4:35 AM 35.6 °F 27.1 °F 26.6 °F 70% 29.69 in 10.0 mi SE 12.7 mph 18.4 mph N/A   Clear
4:55 AM 35.6 °F 27.1 °F 26.6 °F 70% 29.68 in 10.0 mi SE 12.7 mph - N/A   Clear
5:15 AM 33.8 °F 24.3 °F 26.6 °F 75% 29.67 in 10.0 mi SE 13.8 mph - N/A   Clear
5:35 AM 33.8 °F 25.8 °F 26.6 °F 75% 29.67 in 10.0 mi SE 10.4 mph - N/A   Clear
5:55 AM 33.8 °F 24.8 °F 26.6 °F 75% 29.65 in 10.0 mi SE 12.7 mph - N/A   Clear
6:35 AM 35.6 °F 27.1 °F 28.4 °F 75% 29.64 in 10.0 mi SSE 12.7 mph - N/A   Clear
6:55 AM 35.6 °F 26.6 °F 28.4 °F 75% 29.64 in 10.0 mi SSE 13.8 mph - N/A   Clear
7:15 AM 35.6 °F 25.9 °F 28.4 °F 75% 29.63 in 10.0 mi SSE 16.1 mph - N/A   Clear
7:35 AM 37.4 °F 28.2 °F 30.2 °F 75% 29.64 in 10.0 mi South 16.1 mph - N/A   Clear
7:55 AM 37.4 °F 28.2 °F 30.2 °F 75% 29.63 in 10.0 mi South 16.1 mph - N/A   Clear
8:15 AM 39.2 °F 30.2 °F 32.0 °F 75% 29.63 in 10.0 mi South 17.3 mph - N/A   Clear
8:35 AM 39.2 °F 30.2 °F 33.8 °F 81% 29.63 in 10.0 mi South 17.3 mph - N/A   Clear
8:55 AM 41.0 °F 33.1 °F 33.8 °F 76% 29.63 in 10.0 mi South 15.0 mph - N/A   Clear
9:35 AM 44.6 °F 37.8 °F 37.4 °F 76% 29.63 in 10.0 mi South 15.0 mph 19.6 mph N/A   Clear
9:55 AM 48.2 °F - 37.4 °F 66% 29.62 in 10.0 mi South 17.3 mph - N/A   Clear
10:15 AM 50.0 °F - 39.2 °F 66% 29.61 in 10.0 mi South 19.6 mph - N/A   Clear
10:35 AM 51.8 °F - 41.0 °F 67% 29.61 in 10.0 mi SSW 19.6 mph - N/A   Clear
10:55 AM 53.6 °F - 42.8 °F 67% 29.61 in 10.0 mi SSW 19.6 mph 26.5 mph N/A   Clear
11:15 AM 55.4 °F - 42.8 °F 63% 29.60 in 10.0 mi SSW 19.6 mph 25.3 mph N/A   Clear
11:35 AM 55.4 °F - 42.8 °F 63% 29.60 in 10.0 mi SSW 21.9 mph 26.5 mph N/A   Clear
11:55 AM 57.2 °F - 44.6 °F 63% 29.61 in 10.0 mi SSW 20.7 mph 25.3 mph N/A   Clear
12:15 PM 59.0 °F - 44.6 °F 59% 29.60 in 10.0 mi SSW 20.7 mph 26.5 mph N/A   Clear
12:35 PM 60.8 °F - 44.6 °F 55% 29.60 in 10.0 mi SSW 17.3 mph 26.5 mph N/A   Clear
12:55 PM 60.8 °F - 46.4 °F 59% 29.59 in 10.0 mi SSW 21.9 mph 26.5 mph N/A   Clear
1:15 PM 62.6 °F - 46.4 °F 55% 29.58 in 10.0 mi SSW 21.9 mph 27.6 mph N/A   Clear
1:35 PM 62.6 °F - 46.4 °F 55% 29.57 in 10.0 mi South 20.7 mph - N/A   Clear
1:55 PM 64.4 °F - 48.2 °F 56% 29.57 in 10.0 mi SSW 18.4 mph 25.3 mph N/A   Clear
2:15 PM 64.4 °F - 46.4 °F 52% 29.57 in 10.0 mi SSW 23.0 mph - N/A   Clear
2:35 PM 64.4 °F - 48.2 °F 56% 29.57 in 10.0 mi SSW 17.3 mph - N/A   Clear
2:55 PM 64.4 °F - 48.2 °F 56% 29.57 in 10.0 mi SSW 19.6 mph 29.9 mph N/A   Clear
3:15 PM 66.2 °F - 48.2 °F 52% 29.58 in 10.0 mi SSW 17.3 mph 27.6 mph N/A   Clear
3:35 PM 66.2 °F - 50.0 °F 56% 29.58 in 10.0 mi SSW 16.1 mph - N/A   Clear
3:55 PM 64.4 °F - 48.2 °F 56% 29.58 in 10.0 mi SSW 15.0 mph - N/A   Clear
4:15 PM 64.4 °F - 48.2 °F 56% 29.59 in 10.0 mi SSW 18.4 mph 21.9 mph N/A   Clear
4:35 PM 62.6 °F - 46.4 °F 55% 29.59 in 10.0 mi South 18.4 mph - N/A   Clear
5:15 PM 57.2 °F - 44.6 °F 63% 29.60 in 10.0 mi SSW 11.5 mph - N/A   Clear
5:55 PM 53.6 °F - 44.6 °F 72% 29.60 in 10.0 mi South 12.7 mph - N/A   Clear
6:35 PM 48.2 °F - 42.8 °F 82% 29.61 in 10.0 mi South 11.5 mph - N/A   Clear
6:55 PM 50.0 °F - 41.0 °F 71% 29.62 in 10.0 mi South 10.4 mph - N/A   Clear
7:15 PM 46.4 °F 41.5 °F 39.2 °F 76% 29.62 in 10.0 mi South 10.4 mph - N/A   Clear
7:35 PM 46.4 °F 41.9 °F 39.2 °F 76% 29.62 in 10.0 mi South 9.2 mph - N/A   Clear
8:35 PM 48.2 °F - 37.4 °F 66% 29.62 in 10.0 mi South 11.5 mph - N/A   Clear
9:15 PM 48.2 °F - 39.2 °F 71% 29.63 in 10.0 mi South 13.8 mph - N/A   Clear
9:35 PM 48.2 °F - 39.2 °F 71% 29.64 in 10.0 mi South 13.8 mph - N/A   Clear
9:55 PM 48.2 °F - 39.2 °F 71% 29.64 in 10.0 mi South 13.8 mph - N/A   Clear
10:15 PM 48.2 °F - 41.0 °F 76% 29.64 in 10.0 mi South 15.0 mph - N/A   Clear
10:55 PM 50.0 °F - 42.8 °F 76% 29.63 in 10.0 mi South 15.0 mph - N/A   Clear
11:15 PM 48.2 °F - 42.8 °F 82% 29.63 in 10.0 mi South 15.0 mph - N/A   Clear
11:35 PM 48.2 °F - 42.8 °F 82% 29.63 in 10.0 mi South 16.1 mph - N/A   Clear
11:55 PM 48.2 °F - 42.8 °F 82% 29.62 in 10.0 mi South 16.1 mph - N/A   Clear